Location: Ethel Rock
(53.4667°N, 4.5667°W)
Time: 05:13:26
(UTC+00:00)

SL-14 R/B - Pass Details

Date: 24 October 2020
Orbit: 518 x 555 km, 82.4° (Epoch: 25 November)

Event Time Altitude Azimuth Distance (km) Brightness Sun altitude
Rises 05:45:04 0° 194° (SSW) 2,688 6.7 -12.1°
Reaches altitude 10° 05:47:12 10° 196° (SSW) 1,807 5.8 -11.8°
Maximum altitude 05:51:10 75° 281° (WNW) 573 3.2 -11.2°
Drops below altitude 10° 05:55:14 10° 9° (N) 1,842 6.0 -10.6°
Sets 05:57:26 0° 11° (N) 2,745 6.9 -10.3°
